Погода в Монцеве

Россия / Рязанская область     54°51′49″N   41°44′50″E
темп.,
°C
ветер,
м/с
пор.,
м/с
влажн.,
%
обл.,
%
осадки,
мм/ч
давл.,
гПа
погр.,
м
21 апреля, ср
ср2100:00+4в91794100 5.1 1011931
03:00+5вюв112089100 8.8 10061076
06:00+7юв101791100 0.3 1005937
09:00+8юв101789100 0.5 1005973
12:00+9ююз61290100 0.7 1006866
15:00+5зюз4990100 0.8 1009436
18:00+5зюз4788100 0.2 1011632
21:00+4юз4889100 0.3 1013479
22 апреля, чт
чт2200:00+4ююз4890100 0.0 1015356
03:00+5ю369397 0.0 1016176
06:00+5ююв2393100 0.1 1016133
09:00+5юз3596100 1.4 1018381
12:00+8зюз677395 0.1 10191119
15:00+9юз587087 0.1 10201134
18:00+10ю247664 0.1 1020134
21:00+8ююв41078100 0.1 1021215
23 апреля, пт
пт2300:00+7ююв4108298 0.0 1020220
03:00+7ю498370 0.0 1020176
06:00+7ю41085100 0.1 1021231
09:00+12ю596773 0.1 1021454
12:00+16ю675045 0.0 10202033
15:00+15ю475481 0.5 10191593
18:00+14юв486424 0.1 1018268
21:00+9юв411788 0.1 1018211
24 апреля, сб
сб2400:00+8юв4118689 0.1 1016224
03:00+8юв4118990 0.5 1014248
06:00+7юв5119483 0.8 1013341
09:00+12ююв8117330 1.3 1011773
12:00+15ююв9115999 1.6 10091649
15:00+12ююв71172100 3.6 10071337
18:00+5з61092100 3.0 1009660
21:00+5зюз3988100 3.2 1009612
25 апреля, вс
вс2500:00+4юз5118795 0.0 1009333
03:00+2юз511885 0.0 1009376
06:00+2юз511915 0.0 1010452
09:00+6зюз687112 0.0 10101045
12:00+8зюз7956100 0.8 10101989
15:00+9з795095 0.9 10112118
18:00+8зюз47575 0.0 1011525
21:00+4ююз367398 0.1 1012113